DW8078 Weather Reports


Display with metric or nautical units.
time (UTC)temp
F
wind
direction
speed
MPH
gust
MPH
rain 1hr
in
rain 24hr
in
rain mn
in
humidity
%
barometer
mb
20170426114510 46 273 1.0 10.0 0.00 0.06 0.00 55 1011.8
20170426113008 45 299 1.0 13.0 0.00 0.06 0.00 57 1011.8
20170426111506 46 264 2.0 5.0 0.00 0.06 0.00 56 1011.9
20170426110000 45 279 1.0 9.0 0.00 0.06 0.00 58 1011.7
20170426104503 44 273 4.0 11.0 0.00 0.06 0.00 60 1011.6
20170426102957 44 266 2.0 10.0 0.00 0.06 0.00 60 1011.7
20170426101500 44 258 0.0 9.0 0.00 0.06 0.00 60 1011.7
20170426095956 44 305 5.0 10.0 0.00 0.06 0.00 60 1011.6
20170426094459 43 293 8.0 12.0 0.00 0.06 0.00 63 1011.5
20170426092953 43 328 8.0 12.0 0.00 0.06 0.00 59 1011.5
20170426091454 43 267 2.0 9.0 0.00 0.06 0.00 66 1011.4
20170426085948 42 284 2.0 9.0 0.00 0.06 0.00 66 1011.3
20170426084451 42 294 3.0 11.0 0.00 0.06 0.00 67 1011.2
20170426082944 41 329 2.0 10.0 0.00 0.06 0.00 69 1011.1
20170426081442 41 273 2.0 7.0 0.00 0.06 0.00 71 1010.9
20170426075941 41 267 0.0 10.0 0.00 0.06 0.00 74 1011.0
20170426074447 40 300 5.0 11.0 0.00 0.06 0.00 73 1010.9
20170426072938 40 283 0.0 8.0 0.00 0.06 0.00 75 1010.7
20170426071438 39 299 0.0 8.0 0.00 0.06 0.00 77 1010.3
20170426065936 39 282 4.0 8.0 0.00 0.06 0.00 77 1010.3
20170426064434 38 321 6.0 12.0 0.00 0.06 0.00 78 1010.2
20170426062927 37 306 4.0 10.0 0.00 0.06 0.00 80 1010.1
20170426061423 37 300 5.0 9.0 0.00 0.06 0.00 82 1010.0
20170426055923 36 290 4.0 10.0 0.00 0.06 0.00 84 1009.9
20170426054428 36 307 6.0 9.0 0.00 0.06 0.00 86 1009.8
20170426052914 35 314 5.0 9.0 0.00 0.06 0.00 86 1009.7
20170426051413 35 292 5.0 10.0 0.00 0.06 0.00 87 1009.5
20170426045912 35 313 5.0 8.0 0.00 0.06 0.00 88 1009.6
20170426044410 34 303 4.0 7.0 0.00 0.06 0.00 88 1009.5
20170426042919 34 307 4.0 8.0 0.00 0.06 0.00 88 1009.3
20170426041407 34 291 6.0 9.0 0.00 0.06 0.00 89 1008.9
20170426035902 34 297 4.0 9.0 0.00 0.06 0.00 89 1009.1
20170426034359 34 294 6.0 9.0 0.00 0.06 0.00 89 1008.8
20170426032909 34 286 3.0 7.0 0.00 0.06 0.00 89 1008.3
20170426031355 34 279 4.0 6.0 0.00 0.06 0.00 88 1008.3
20170426025852 34 298 2.0 6.0 0.00 0.06 0.00 88 1008.0
20170426024407 34 273 2.0 6.0 0.00 0.06 0.00 88 1008.0
20170426022849 34 295 0.0 4.0 0.00 0.06 0.00 88 1007.8
20170426021342 35 295 0.0 5.0 0.00 0.06 0.00 88 1007.9
20170426015852 35 298 4.0 6.0 0.00 0.06 0.00 88 1007.9
20170426014341 35 294 4.0 6.0 0.00 0.06 0.00 88 1007.7
20170426012838 36 289 4.0 6.0 0.00 0.06 0.00 88 1007.8
20170426011340 36 300 4.0 6.0 0.00 0.06 0.00 87 1007.7
20170426005843 36 317 2.0 6.0 0.00 0.06 0.00 87 1007.4
20170426004335 36 311 5.0 7.0 0.00 0.06 0.00 87 1007.8
20170426002834 36 314 4.0 8.0 0.00 0.06 0.00 87 1007.6
20170426001336 37 308 6.0 8.0 0.00 0.06 0.00 86 1007.3
20170425235834 37 299 4.0 7.0 0.00 0.06 0.00 86 1007.1
20170425234323 37 296 4.0 7.0 0.00 0.06 0.00 86 1007.2
20170425232826 37 293 4.0 8.0 0.00 0.06 0.00 85 1007.2
20170425231320 37 299 1.0 7.0 0.00 0.06 0.00 85 1007.3
20170425225828 37 287 0.0 6.0 0.00 0.06 0.00 85 1007.4
20170425224327 38 297 1.0 6.0 0.00 0.06 0.00 85 1007.2
20170425222824 38 304 4.0 6.0 0.00 0.06 0.00 85 1007.0
20170425221316 38 286 5.0 8.0 0.00 0.06 0.00 85 1007.0
20170425215810 38 298 5.0 9.0 0.00 0.06 0.06 85 1006.8
20170425214319 38 296 4.0 8.0 0.00 0.06 0.06 86 1006.5
20170425212815 38 306 7.0 9.0 0.00 0.06 0.06 86 1006.2
20170425211338 39 303 6.0 9.0 0.00 0.06 0.06 85 1006.0
20170425205807 39 316 6.0 9.0 0.00 0.06 0.06 84 1005.7
20170425204306 39 318 5.0 9.0 0.00 0.06 0.06 84 1005.6
20170425202806 40 304 8.0 11.0 0.00 0.06 0.06 83 1005.8
20170425201305 40 310 7.0 11.0 0.00 0.06 0.06 83 1005.7
20170425195811 40 290 7.0 9.0 0.00 0.06 0.06 83 1005.5
20170425194306 41 317 7.0 11.0 0.00 0.06 0.06 82 1005.7
20170425192803 41 292 8.0 13.0 0.01 0.06 0.06 83 1005.5
20170425191310 42 303 7.0 11.0 0.01 0.06 0.06 84 1005.1
20170425185801 42 278 6.0 11.0 0.01 0.06 0.06 86 1004.7
20170425184301 42 308 8.0 19.0 0.01 0.06 0.06 87 1004.6
20170425182800 43 319 0.0 0.0 0.00 0.06 0.06 89 1004.8
20170425181259 43 319 0.0 0.0 0.01 0.06 0.06 88 1004.7
20170425175808 43 320 0.0 0.0 0.01 0.06 0.06 88 1004.6
20170425174257 43 328 0.0 0.0 0.01 0.06 0.06 87 1004.5
20170425172757 43 338 2.0 8.0 0.01 0.06 0.06 87 1004.4
20170425171253 43 338 5.0 9.0 0.00 0.05 0.05 86 1004.3
20170425165811 44 336 0.0 0.0 0.00 0.05 0.05 85 1004.4
20170425164253 44 303 2.0 7.0 0.00 0.05 0.05 85 1004.1
20170425162800 44 337 0.0 7.0 0.00 0.05 0.05 85 1004.0
20170425161257 44 327 5.0 13.0 0.00 0.05 0.05 86 1003.9
20170425155751 44 309 8.0 13.0 0.02 0.05 0.05 87 1003.7
20170425154251 44 326 6.0 11.0 0.02 0.05 0.05 87 1003.6
20170425152756 43 283 2.0 6.0 0.02 0.05 0.05 88 1003.4
20170425151251 42 286 4.0 6.0 0.03 0.05 0.05 88 1003.4
20170425145748 42 309 0.0 8.0 0.02 0.03 0.03 88 1003.4
20170425144247 42 310 4.0 8.0 0.02 0.02 0.02 88 1003.4
20170425142749 42 325 0.0 4.0 0.02 0.02 0.02 88 1003.4
20170425141248 41 337 0.0 7.0 0.02 0.02 0.02 88 1003.3
20170425135747 41 360 0.0 9.0 0.01 0.01 0.01 88 1003.1
20170425134250 41 360 6.0 15.0 0.01 0.01 0.01 87 1003.0
20170425132748 41 14 11.0 25.0 0.00 0.00 0.00 85 1002.8
20170425131241 48 13 12.0 27.0 0.00 0.00 0.00 69 1001.9
20170425125743 54 267 15.0 25.0 0.00 0.00 0.00 59 1000.8
20170425124244 53 288 9.0 14.0 0.00 0.00 0.00 61 1000.7
20170425122741 53 303 9.0 20.0 0.00 0.00 0.00 62 1000.7
20170425121245 54 294 16.0 24.0 0.00 0.00 0.00 58 1000.6
20170425115750 55 296 15.0 21.0 0.00 0.00 0.00 56 1000.5